パンスターズ彗星

P/2024 K1 ( PanSTARRS )

English version
Home page
Updated on June 22, 2024

---------------------------------------------------------------------

・ プロフィール

発見日 2024年5月30日
発見光度 20.7等
発見者 Pan-STARRS 1 telescope (Haleakala)

・ 軌道要素

Epoch 2024 Mar. 31.0 TT = JDT 2460400.5                                         
T 2024 May  9.20906 TT                                  Rudenko                 
q   3.4560657            (2000.0)            P               Q                  
n   0.05500173     Peri.  351.97836     -0.44348412     +0.89579369             
a   6.8478119      Node   251.69114     -0.82058316     -0.41908524             
e   0.4953036      Incl.    1.78601     -0.36050674     -0.14805821             
P  17.9                                                                         
>From 28 observations 2024 May 30-June 10, mean residual 0".2.                   

・ 光度変化

        m1 = 13.0 + 5 logΔ + 10.0 log r

---------------------------------------------------------------------

軌道要素はM.P.E.C. 2024-L114に掲載されたものです。
光度グラフはComet for Windowsで作成したものです。

---------------------------------------------------------------------

Copyright(C) Seiichi Yoshida (comet@aerith.net). All rights reserved.